Tracking 29089 objects as of 12-Jul-2024
HD Live streaming from Space Station
objects crossing your sky now

STARLINK-31986

Track STARLINK-31986 now!
10-day predictions
STARLINK-31986 is classified as:


NORAD ID: 60019
Int'l Code: 2024-111D
Perigee: 425.4 km
Apogee: 426.5 km
Inclination: 53.2 °
Period: 92.9 minutes
Semi major axis: 6796 km
RCS: Unknown
Launch date: June 8, 2024
Source: United States (US)
Launch site: AIR FORCE EASTERN TEST RANGE (AFETR)
Your satellite tracking list
Your tracking list is empty




NASA's NSSDC Master Catalog

Two Line Element Set (TLE):
1 60019U 24111D   24193.77644877 -.00008372  00000-0 -14273-3 0  9996
2 60019  53.1603  15.8252 0000752 108.6140 251.4951 15.49289518  6198
Source of the keplerian elements: AFSPC